Orbital Elements at Epoch 2459200.5 (2020-Dec-17.0) TDB
Reference: JPL 21 (heliocentric ecliptic J2000)
Element | Value | Uncertainty (1-sigma) | Units |
e | .2042968940887248 | 4.1406e-08 | |
a | 3.08806327862179 | 2.3043e-08 | au |
q | 2.457181542049914 | 1.2928e-07 | au |
i | 12.4453205928792 | 4.5411e-06 | deg |
node | 141.8770591271538 | 2.1835e-05 | deg |
peri | 193.047234222648 | 2.4678e-05 | deg |
M | 280.9845968348742 | 1.3916e-05 | deg |
tp | 2459635.547796222857 (2022-Feb-25.04779622) | 8.0053e-05 | TDB |
period | 1982.109821207026 5.43 | 2.2185e-05 6.074e-08 | d yr |
n | .1816246487194006 | 2.0329e-09 | deg/d |
Q | 3.718945015193666 | 2.775e-08 | au |
|
| | Orbit Determination Parameters
Additional Information
|